Погода в Рожкао

Россия / Карачаево-Черкесская Республика     43°48′56″N   40°54′45″E
темп.,
°C
ветер,
м/с
пор.,
м/с
влажн.,
%
обл.,
%
осадки,
мм/ч
давл.,
гПа
погр.,
м
26 октября, вт
вт2600:00−10ююз44929 0.0 103546
03:00−10ю32863 0.0 103531
06:00−10ю32780 0.0 103529
09:00−1вюв00560 0.0 1030187
12:00+2ссв21610 0.0 1027444
15:00+1св21795 0.0 1027353
18:00−5ю32935 0.0 103217
21:00−5ю42670 0.0 103121
27 октября, ср
ср2700:00−4ю42600 0.0 103021
03:00−3ю42590 0.0 102920
06:00−3ю42603 0.0 102921
09:00+5ю12570 0.0 102349
12:00+8ссв10530 0.0 1021463
15:00+7св11740 0.0 1021245
18:00+1ююз43860 0.0 102536
21:00−1ююз55710 0.0 102650
28 октября, чт
чт2800:00−2ююз45650 0.0 102745
03:00−3ююз43620 0.0 102737
06:00−3ююз55590 0.0 102754
09:00+4ююз24480 0.0 1023150
12:00+8сз02427 0.0 1021759
15:00+6в0255100 0.0 1020555
18:000ююз2389100 0.0 102542
21:000ююз238899 0.0 102557
29 октября, пт
пт2900:00−2ююз4581100 0.0 102677
03:00−2ююз347893 0.0 102663
06:00−2ююз337093 0.0 102642
09:00+3ссз114734 0.0 1024296
12:00+5ссв32545 0.0 1023905
15:00+4ссв216829 0.0 1024737
18:00−1вюв019881 0.0 102911
21:000в118744 0.0 102939
30 октября, сб
сб3000:00−3ю22905 0.0 103120
03:00−3ю21681 0.0 103013
06:00−3ю22530 0.0 103113
09:00+3в11350 0.0 1028152
12:00+6св33380 0.0 1027415
15:00+5св23510 0.0 1027394
18:00−2ю22650 0.0 103215
21:00−1ю22290 0.0 103116